• In Belarus
  • List of Countries
  • For 7 days
  • Water Temperature
  • Satellite Maps
  • Weather Map
  • Weather Widgets
  • user-avatar
    Login

    Hourly Weather Glinka

    Today, 16 July, Monday

    Time Temperature Precipitation Wind Pressure Humidity
    00:00 +19°C° 0 mm 1 mps 753 mmHg 78%
    01:00 +17°C° 0 mm 2 mps 753 mmHg 81%
    02:00 +17°C° 0 mm 2 mps 753 mmHg 84%
    03:00 +16°C° 0 mm 1 mps 753 mmHg 87%
    04:00 +16°C° 0 mm 1 mps 753 mmHg 90%
    05:00 +18°C° 0 mm 1 mps 753 mmHg 85%
    06:00 +19°C° 0 mm 2 mps 753 mmHg 80%
    07:00 +20°C° 0 mm 2 mps 753 mmHg 74%
    08:00 +23°C° 0 mm 2 mps 752 mmHg 68%
    09:00 +24°C° 0 mm 3 mps 752 mmHg 62%
    10:00 +26°C° 0 mm 3 mps 752 mmHg 55%
    11:00 +27°C° 0 mm 3 mps 752 mmHg 52%
    12:00 +28°C° 0 mm 3 mps 751 mmHg 49%
    13:00 +29°C° 0 mm 3 mps 751 mmHg 44%
    14:00 +29°C° 0.2 mm 3 mps 750 mmHg 45%
    15:00 +29°C° 0.2 mm 3 mps 750 mmHg 47%
    16:00 +29°C° 0.2 mm 3 mps 750 mmHg 48%
    17:00 +27°C° 0 mm 2 mps 750 mmHg 55%
    18:00 +26°C° 0 mm 2 mps 750 mmHg 61%
    19:00 +25°C° 0 mm 2 mps 750 mmHg 68%
    20:00 +23°C° 0.4 mm 2 mps 750 mmHg 73%
    21:00 +21°C° 0.4 mm 2 mps 750 mmHg 78%
    22:00 +20°C° 0.4 mm 2 mps 749 mmHg 82%
    23:00 +19°C° 0.6 mm 2 mps 749 mmHg 85%

    Tomorrow, 17 July, Tuesday

    Time Temperature Precipitation Wind Pressure Humidity
    00:00 +19°C° 0.6 mm 2 mps 749 mmHg 88%
    01:00 +19°C° 0.6 mm 2 mps 749 mmHg 90%
    02:00 +18°C° 0.3 mm 2 mps 749 mmHg 92%
    03:00 +18°C° 0.3 mm 2 mps 749 mmHg 93%
    04:00 +18°C° 0.3 mm 2 mps 749 mmHg 95%
    05:00 +19°C° 0.4 mm 3 mps 749 mmHg 92%
    06:00 +19°C° 0.4 mm 3 mps 749 mmHg 90%
    07:00 +20°C° 0.4 mm 4 mps 749 mmHg 88%
    08:00 +20°C° 1 mm 4 mps 749 mmHg 88%
    09:00 +20°C° 1 mm 4 mps 749 mmHg 88%
    10:00 +20°C° 1 mm 5 mps 749 mmHg 88%
    11:00 +20°C° 1.1 mm 5 mps 749 mmHg 89%
    12:00 +20°C° 1.1 mm 5 mps 749 mmHg 90%
    13:00 +20°C° 1.1 mm 5 mps 749 mmHg 90%
    14:00 +20°C° 0.5 mm 5 mps 749 mmHg 89%
    15:00 +21°C° 0.5 mm 5 mps 749 mmHg 87%
    16:00 +21°C° 0.5 mm 6 mps 749 mmHg 86%
    17:00 +21°C° 0.3 mm 5 mps 749 mmHg 87%
    18:00 +20°C° 0.3 mm 5 mps 749 mmHg 88%
    19:00 +20°C° 0.3 mm 4 mps 749 mmHg 90%
    20:00 +20°C° 0.2 mm 4 mps 749 mmHg 91%
    21:00 +19°C° 0.2 mm 4 mps 749 mmHg 92%
    22:00 +19°C° 0.2 mm 4 mps 749 mmHg 93%
    23:00 +19°C° 0 mm 4 mps 749 mmHg 94%

    Day after tomorrow, 18 July, Wednesday

    Time Temperature Precipitation Wind Pressure Humidity
    00:00 +19°C° 0 mm 4 mps 750 mmHg 95%
    01:00 +18°C° 0 mm 4 mps 750 mmHg 96%
    02:00 +18°C° 0 mm 4 mps 750 mmHg 95%
    03:00 +18°C° 0 mm 4 mps 750 mmHg 95%
    04:00 +18°C° 0 mm 4 mps 750 mmHg 95%
    05:00 +19°C° 0 mm 4 mps 750 mmHg 94%
    06:00 +19°C° 0 mm 5 mps 750 mmHg 92%
    07:00 +20°C° 0 mm 5 mps 750 mmHg 90%
    08:00 +21°C° 0.1 mm 5 mps 751 mmHg 85%
    09:00 +22°C° 0.1 mm 5 mps 751 mmHg 79%
    10:00 +23°C° 0.1 mm 5 mps 751 mmHg 74%
    11:00 +24°C° 0.4 mm 6 mps 751 mmHg 71%
    12:00 +26°C° 0.4 mm 6 mps 751 mmHg 68%
    13:00 +27°C° 0.4 mm 6 mps 751 mmHg 65%
    14:00 +27°C° 0.4 mm 6 mps 751 mmHg 64%
    15:00 +27°C° 0.4 mm 6 mps 751 mmHg 64%
    16:00 +27°C° 0.4 mm 6 mps 751 mmHg 64%
    17:00 +26°C° 0.1 mm 6 mps 751 mmHg 66%
    18:00 +25°C° 0.1 mm 5 mps 751 mmHg 69%
    19:00 +23°C° 0.1 mm 4 mps 751 mmHg 71%
    20:00 +22°C° 0 mm 4 mps 752 mmHg 74%
    21:00 +21°C° 0 mm 3 mps 752 mmHg 78%
    22:00 +20°C° 0 mm 3 mps 752 mmHg 81%
    23:00 +19°C° 0 mm 3 mps 752 mmHg 83%

    19 July, Thursday

    Time Temperature Precipitation Wind Pressure Humidity
    00:00 +19°C° 0 mm 3 mps 752 mmHg 84%
    01:00 +19°C° 0 mm 3 mps 752 mmHg 86%
    02:00 +19°C° 0 mm 3 mps 752 mmHg 87%
    03:00 +19°C° 0 mm 4 mps 752 mmHg 87%
    04:00 +19°C° 0 mm 4 mps 752 mmHg 88%
    05:00 +19°C° 0.1 mm 4 mps 752 mmHg 86%
    06:00 +19°C° 0.1 mm 4 mps 752 mmHg 85%
    07:00 +19°C° 0.1 mm 4 mps 753 mmHg 83%
    08:00 +21°C° 0 mm 5 mps 753 mmHg 78%
    09:00 +22°C° 0 mm 5 mps 753 mmHg 73%
    10:00 +23°C° 0 mm 5 mps 753 mmHg 68%
    11:00 +25°C° 0.2 mm 5 mps 753 mmHg 66%
    12:00 +26°C° 0.2 mm 5 mps 753 mmHg 64%
    13:00 +27°C° 0.2 mm 5 mps 753 mmHg 62%
    14:00 +26°C° 0.5 mm 5 mps 753 mmHg 63%
    15:00 +26°C° 0.5 mm 6 mps 752 mmHg 65%
    16:00 +26°C° 0.5 mm 6 mps 752 mmHg 67%
    17:00 +25°C° 0.1 mm 5 mps 752 mmHg 71%
    18:00 +23°C° 0.1 mm 4 mps 753 mmHg 74%
    19:00 +22°C° 0.1 mm 4 mps 753 mmHg 78%
    20:00 +21°C° 0.1 mm 4 mps 753 mmHg 81%
    21:00 +20°C° 0.1 mm 3 mps 753 mmHg 83%
    22:00 +20°C° 0.1 mm 3 mps 753 mmHg 86%
    23:00 +19°C° 0.1 mm 3 mps 753 mmHg 87%

    20 July, Friday

    Time Temperature Precipitation Wind Pressure Humidity
    00:00 +18°C° 0.1 mm 3 mps 753 mmHg 87%
    01:00 +18°C° 0.1 mm 3 mps 753 mmHg 88%
    02:00 +17°C° 0 mm 3 mps 753 mmHg 87%
    03:00 +16°C° 0 mm 2 mps 753 mmHg 86%
    04:00 +16°C° 0 mm 2 mps 753 mmHg 86%
    05:00 +17°C° 0 mm 2 mps 753 mmHg 81%
    06:00 +18°C° 0 mm 3 mps 753 mmHg 76%
    07:00 +19°C° 0 mm 3 mps 753 mmHg 71%
    08:00 +21°C° 0 mm 3 mps 753 mmHg 64%
    09:00 +22°C° 0 mm 3 mps 753 mmHg 57%
    10:00 +25°C° 0 mm 3 mps 753 mmHg 49%
    11:00 +26°C° 0 mm 3 mps 753 mmHg 46%
    12:00 +27°C° 0 mm 3 mps 753 mmHg 43%
    13:00 +28°C° 0 mm 3 mps 753 mmHg 39%
    14:00 +28°C° 0 mm 3 mps 752 mmHg 39%
    15:00 +28°C° 0 mm 3 mps 752 mmHg 39%
    16:00 +28°C° 0 mm 3 mps 752 mmHg 38%
    17:00 +27°C° 0 mm 2 mps 752 mmHg 44%
    18:00 +26°C° 0 mm 2 mps 752 mmHg 50%
    19:00 +24°C° 0 mm 2 mps 752 mmHg 56%
    20:00 +23°C° 0 mm 1 mps 752 mmHg 60%
    21:00 +21°C° 0 mm 1 mps 752 mmHg 63%
    22:00 +20°C° 0 mm 1 mps 752 mmHg 67%
    23:00 +19°C° 0 mm 1 mps 752 mmHg 70%

    21 July, Saturday

    Time Temperature Precipitation Wind Pressure Humidity
    00:00 +19°C° 0 mm 1 mps 752 mmHg 73%
    01:00 +18°C° 0 mm 1 mps 752 mmHg 76%
    02:00 +18°C° 0 mm 1 mps 751 mmHg 77%
    03:00 +16°C° 0 mm 1 mps 751 mmHg 78%
    04:00 +16°C° 0 mm 1 mps 751 mmHg 80%
    05:00 +18°C° 0 mm 1 mps 751 mmHg 75%
    06:00 +20°C° 0 mm 1 mps 751 mmHg 70%
    07:00 +21°C° 0 mm 1 mps 751 mmHg 65%
    08:00 +23°C° 0 mm 1 mps 751 mmHg 61%
    09:00 +24°C° 0 mm 1 mps 751 mmHg 56%
    10:00 +26°C° 0 mm 1 mps 751 mmHg 51%
    11:00 +27°C° 0 mm 1 mps 750 mmHg 49%
    12:00 +27°C° 0 mm 1 mps 750 mmHg 46%
    13:00 +28°C° 0 mm 1 mps 750 mmHg 44%
    14:00 +27°C° 0 mm 1 mps 750 mmHg 47%
    15:00 +27°C° 0 mm 1 mps 749 mmHg 50%
    16:00 +26°C° 0 mm 1 mps 749 mmHg 53%
    17:00 +25°C° 0 mm 2 mps 749 mmHg 57%
    18:00 +24°C° 0 mm 2 mps 749 mmHg 61%
    19:00 +23°C° 0 mm 2 mps 749 mmHg 65%
    20:00 +21°C° 0.1 mm 2 mps 749 mmHg 67%
    21:00 +21°C° 0.1 mm 2 mps 749 mmHg 70%
    22:00 +20°C° 0.1 mm 2 mps 749 mmHg 72%
    23:00 +19°C° 0.5 mm 2 mps 749 mmHg 76%
    Show more